| time (UTC) | temp C | wind direction | speed KPH | gust KPH | rain 1hr cm | rain 24hr cm | rain mn cm | humidity % | barometer mb |
| 20260903010057 | 27 | 205 | 1.6 | 4.8 | 0.00 | 0.00 | 0.00 | 82 | 1013.3 |
| 20260903004605 | 27 | 216 | 3.2 | 9.7 | 0.00 | 0.00 | 0.00 | 80 | 1013.2 |
| 20260903003057 | 28 | 223 | 4.8 | 9.7 | 0.00 | 0.00 | 0.00 | 79 | 1013.1 |
| 20260903001555 | 28 | 214 | 4.8 | 8.0 | 0.00 | 0.00 | 0.00 | 78 | 1013.1 |
| 20260903000054 | 28 | 183 | 3.2 | 6.4 | 0.00 | 0.00 | 0.00 | 78 | 1013.3 |
| 20260902234553 | 29 | 205 | 3.2 | 8.0 | 0.00 | 0.00 | 0.00 | 78 | 1013.2 |
| 20260902233102 | 30 | 216 | 3.2 | 9.7 | 0.00 | 0.00 | 0.00 | 76 | 1013.3 |
| 20260902231552 | 30 | 243 | 4.8 | 8.0 | 0.00 | 0.00 | 0.00 | 74 | 1013.4 |
| 20260902230059 | 30 | 225 | 4.8 | 11.3 | 0.00 | 0.00 | 0.00 | 73 | 1013.3 |
| 20260902224555 | 31 | 221 | 4.8 | 11.3 | 0.00 | 0.00 | 0.00 | 71 | 1013.4 |
| 20260902223104 | 31 | 217 | 8.0 | 14.5 | 0.00 | 0.00 | 0.00 | 70 | 1013.4 |
| 20260902221549 | 31 | 200 | 9.7 | 19.3 | 0.00 | 0.00 | 0.00 | 68 | 1013.4 |
| 20260902220053 | 32 | 215 | 6.4 | 19.3 | 0.00 | 0.00 | 0.00 | 68 | 1013.4 |
| 20260902214552 | 32 | 225 | 8.0 | 17.7 | 0.00 | 0.00 | 0.00 | 67 | 1013.4 |
| 20260902213048 | 32 | 225 | 9.7 | 19.3 | 0.00 | 0.00 | 0.00 | 66 | 1013.4 |
| 20260902211547 | 32 | 252 | 12.9 | 25.7 | 0.00 | 0.00 | 0.00 | 64 | 1013.5 |
| 20260902210046 | 32 | 240 | 9.7 | 17.7 | 0.00 | 0.00 | 0.00 | 63 | 1013.5 |
| 20260902204610 | 32 | 211 | 9.7 | 16.1 | 0.00 | 0.00 | 0.00 | 64 | 1013.6 |
| 20260902203044 | 32 | 239 | 14.5 | 17.7 | 0.00 | 0.00 | 0.00 | 64 | 1013.7 |
| 20260902201543 | 32 | 234 | 9.7 | 16.1 | 0.00 | 0.00 | 0.00 | 65 | 1013.9 |
| 20260902200042 | 32 | 234 | 16.1 | 22.5 | 0.00 | 0.00 | 0.00 | 61 | 1014.0 |
| 20260902194538 | 32 | 234 | 12.9 | 22.5 | 0.00 | 0.00 | 0.00 | 62 | 1014.0 |
| 20260902193037 | 32 | 252 | 12.9 | 19.3 | 0.00 | 0.00 | 0.00 | 61 | 1014.2 |
| 20260902191535 | 32 | 194 | 12.9 | 19.3 | 0.00 | 0.00 | 0.00 | 64 | 1014.4 |
| 20260902190036 | 32 | 223 | 11.3 | 19.3 | 0.00 | 0.00 | 0.00 | 64 | 1014.4 |
| 20260902184536 | 32 | 194 | 12.9 | 19.3 | 0.00 | 0.00 | 0.00 | 64 | 1014.4 |
| 20260902183051 | 32 | 210 | 14.5 | 20.9 | 0.00 | 0.00 | 0.00 | 64 | 1014.4 |
| 20260902181530 | 32 | 181 | 9.7 | 16.1 | 0.00 | 0.00 | 0.00 | 65 | 1014.7 |
| 20260902180029 | 32 | 221 | 9.7 | 16.1 | 0.00 | 0.00 | 0.00 | 65 | 1014.7 |
| 20260902174528 | 31 | 166 | 9.7 | 17.7 | 0.00 | 0.00 | 0.00 | 65 | 1014.9 |
| 20260902173028 | 31 | 194 | 9.7 | 17.7 | 0.00 | 0.00 | 0.00 | 65 | 1015.1 |
| 20260902171522 | 31 | 216 | 9.7 | 16.1 | 0.00 | 0.00 | 0.00 | 68 | 1015.2 |
| 20260902170020 | 31 | 212 | 9.7 | 16.1 | 0.00 | 0.00 | 0.00 | 71 | 1015.3 |
| 20260902164523 | 30 | 250 | 11.3 | 16.1 | 0.00 | 0.00 | 0.00 | 70 | 1015.4 |
| 20260902163014 | 30 | 225 | 8.0 | 14.5 | 0.00 | 0.00 | 0.00 | 73 | 1015.4 |
| 20260902161511 | 30 | 210 | 6.4 | 16.1 | 0.00 | 0.00 | 0.00 | 72 | 1015.7 |
| 20260902160009 | 30 | 189 | 8.0 | 14.5 | 0.00 | 0.00 | 0.00 | 72 | 1015.7 |
| 20260902154503 | 30 | 212 | 8.0 | 17.7 | 0.00 | 0.00 | 0.00 | 71 | 1015.8 |
| 20260902153107 | 29 | 254 | 9.7 | 16.1 | 0.00 | 0.00 | 0.00 | 75 | 1015.8 |
| 20260902151555 | 28 | 211 | 9.7 | 16.1 | 0.00 | 0.00 | 0.00 | 73 | 1015.7 |
| 20260902150050 | 28 | 243 | 11.3 | 19.3 | 0.00 | 0.00 | 0.00 | 74 | 1015.8 |
| 20260902144547 | 28 | 248 | 9.7 | 19.3 | 0.00 | 0.00 | 0.00 | 73 | 1015.8 |
| 20260902143047 | 27 | 238 | 9.7 | 20.9 | 0.00 | 0.00 | 0.00 | 75 | 1015.8 |
| 20260902141538 | 27 | 236 | 11.3 | 16.1 | 0.00 | 0.00 | 0.00 | 76 | 1015.7 |
| 20260902140033 | 27 | 228 | 8.0 | 14.5 | 0.00 | 0.00 | 0.00 | 79 | 1015.6 |
| 20260902134530 | 26 | 236 | 4.8 | 14.5 | 0.00 | 0.00 | 0.00 | 79 | 1015.8 |
| 20260902133028 | 26 | 196 | 8.0 | 16.1 | 0.00 | 0.00 | 0.00 | 80 | 1015.8 |
| 20260902131523 | 25 | 232 | 6.4 | 11.3 | 0.00 | 0.00 | 0.00 | 85 | 1016.1 |
| 20260902130016 | 24 | 215 | 4.8 | 9.7 | 0.00 | 0.00 | 0.00 | 85 | 1016.2 |
| 20260902124513 | 23 | 218 | 3.2 | 6.4 | 0.00 | 0.00 | 0.00 | 87 | 1016.2 |
| 20260902123008 | 23 | 218 | 3.2 | 6.4 | 0.00 | 0.00 | 0.00 | 88 | 1016.2 |
| 20260902121503 | 22 | 229 | 3.2 | 8.0 | 0.00 | 0.00 | 0.00 | 89 | 1016.1 |
| 20260902120059 | 22 | 360 | 3.2 | 6.4 | 0.00 | 0.00 | 0.00 | 89 | 1016.2 |
| 20260902114557 | 22 | 360 | 3.2 | 6.4 | 0.00 | 0.00 | 0.00 | 89 | 1016.1 |
| 20260902113056 | 22 | 360 | 3.2 | 4.8 | 0.00 | 0.00 | 0.00 | 90 | 1016.0 |
| 20260902111555 | 22 | 360 | 3.2 | 4.8 | 0.00 | 0.00 | 0.00 | 90 | 1015.9 |
| 20260902110058 | 22 | 360 | 1.6 | 4.8 | 0.00 | 0.00 | 0.00 | 91 | 1015.8 |
| 20260902104604 | 22 | 360 | 1.6 | 4.8 | 0.00 | 0.00 | 0.00 | 91 | 1015.7 |
| 20260902103105 | 22 | 360 | 0.0 | 3.2 | 0.00 | 0.00 | 0.00 | 91 | 1015.6 |
| 20260902101556 | 22 | 360 | 0.0 | 3.2 | 0.00 | 0.00 | 0.00 | 91 | 1015.4 |
| 20260902100046 | 22 | 360 | 1.6 | 4.8 | 0.00 | 0.00 | 0.00 | 91 | 1015.4 |
| 20260902094544 | 22 | 360 | 1.6 | 3.2 | 0.00 | 0.00 | 0.00 | 90 | 1015.2 |
| 20260902093042 | 22 | 360 | 1.6 | 4.8 | 0.00 | 0.00 | 0.00 | 90 | 1015.1 |
| 20260902091542 | 22 | 360 | 3.2 | 4.8 | 0.00 | 0.00 | 0.00 | 90 | 1015.2 |
| 20260902090042 | 22 | 360 | 1.6 | 4.8 | 0.00 | 0.00 | 0.00 | 89 | 1015.1 |
| 20260902084542 | 23 | 360 | 1.6 | 8.0 | 0.00 | 0.00 | 0.00 | 89 | 1015.1 |
| 20260902083044 | 23 | 360 | 0.0 | 1.6 | 0.00 | 0.00 | 0.00 | 90 | 1015.1 |
| 20260902081538 | 23 | 360 | 0.0 | 1.6 | 0.00 | 0.00 | 0.00 | 91 | 1015.1 |
| 20260902080039 | 22 | 360 | 0.0 | 0.0 | 0.00 | 0.00 | 0.00 | 91 | 1015.1 |
| 20260902074536 | 23 | 360 | 0.0 | 4.8 | 0.00 | 0.00 | 0.00 | 90 | 1015.1 |
| 20260902073035 | 23 | 360 | 1.6 | 4.8 | 0.00 | 0.00 | 0.00 | 90 | 1015.2 |
| 20260902071533 | 23 | 360 | 1.6 | 4.8 | 0.00 | 0.00 | 0.00 | 89 | 1015.0 |
| 20260902070032 | 23 | 360 | 1.6 | 4.8 | 0.00 | 0.00 | 0.00 | 89 | 1015.0 |
| 20260902064532 | 23 | 360 | 1.6 | 6.4 | 0.00 | 0.00 | 0.00 | 88 | 1015.0 |
| 20260902063050 | 23 | 360 | 1.6 | 4.8 | 0.00 | 0.00 | 0.00 | 88 | 1014.9 |
| 20260902061550 | 23 | 360 | 3.2 | 4.8 | 0.00 | 0.00 | 0.00 | 89 | 1015.0 |
| 20260902060037 | 23 | 360 | 0.0 | 0.0 | 0.00 | 0.00 | 0.00 | 88 | 1015.1 |
| 20260902054528 | 24 | 360 | 0.0 | 3.2 | 0.00 | 0.00 | 0.00 | 87 | 1015.1 |
| 20260902053026 | 24 | 360 | 1.6 | 4.8 | 0.00 | 0.00 | 0.00 | 87 | 1015.1 |
| 20260902051522 | 25 | 360 | 3.2 | 4.8 | 0.00 | 0.00 | 0.00 | 87 | 1015.1 |
| 20260902050023 | 25 | 360 | 0.0 | 4.8 | 0.00 | 0.00 | 0.00 | 88 | 1015.1 |
| 20260902044536 | 25 | 360 | 3.2 | 6.4 | 0.00 | 0.00 | 0.00 | 87 | 1015.0 |
| 20260902043017 | 25 | 360 | 3.2 | 6.4 | 0.00 | 0.00 | 0.00 | 87 | 1015.1 |
| 20260902041518 | 25 | 360 | 3.2 | 6.4 | 0.00 | 0.00 | 0.00 | 87 | 1015.0 |
| 20260902040015 | 25 | 360 | 3.2 | 6.4 | 0.00 | 0.00 | 0.00 | 86 | 1015.0 |
| 20260902034514 | 25 | 360 | 3.2 | 4.8 | 0.00 | 0.00 | 0.00 | 87 | 1014.9 |
| 20260902033013 | 25 | 360 | 3.2 | 4.8 | 0.00 | 0.00 | 0.00 | 86 | 1015.0 |
| 20260902031532 | 25 | 360 | 1.6 | 6.4 | 0.00 | 0.00 | 0.00 | 85 | 1014.9 |
| 20260902030011 | 26 | 210 | 1.6 | 4.8 | 0.00 | 0.00 | 0.00 | 85 | 1014.8 |
| 20260902024511 | 26 | 225 | 1.6 | 6.4 | 0.00 | 0.00 | 0.00 | 85 | 1014.8 |
| 20260902023020 | 26 | 225 | 1.6 | 4.8 | 0.00 | 0.00 | 0.00 | 85 | 1014.9 |
| 20260902021510 | 26 | 226 | 1.6 | 4.8 | 0.00 | 0.00 | 0.00 | 87 | 1014.9 |
| 20260902020010 | 26 | 226 | 1.6 | 3.2 | 0.00 | 0.00 | 0.00 | 87 | 1014.8 |
| 20260902014514 | 26 | 226 | 0.0 | 3.2 | 0.00 | 0.00 | 0.00 | 86 | 1014.9 |
| 20260902013009 | 27 | 226 | 1.6 | 3.2 | 0.00 | 0.00 | 0.00 | 84 | 1014.8 |